Year,Month,Day,Hour,Minute,Value (Times are PST for temperature in C)
2009,06,03,00,00,17.50
2009,06,03,00,01,17.50
2009,06,03,00,02,17.50
2009,06,03,00,03,17.50
2009,06,03,00,04,17.40
2009,06,03,00,05,17.40
2009,06,03,00,06,17.40
2009,06,03,00,07,17.40
2009,06,03,00,08,17.40
2009,06,03,00,09,17.40
2009,06,03,00,10,17.30
2009,06,03,00,11,17.30
2009,06,03,00,12,17.30
2009,06,03,00,13,17.30
2009,06,03,00,14,17.30
2009,06,03,00,15,17.30
2009,06,03,00,16,17.30
2009,06,03,00,17,17.30
2009,06,03,00,18,17.30
2009,06,03,00,19,17.30
2009,06,03,00,20,17.30
2009,06,03,00,21,17.30
2009,06,03,00,22,17.20
2009,06,03,00,23,17.20
2009,06,03,00,24,17.20
2009,06,03,00,25,17.20
2009,06,03,00,26,17.20
2009,06,03,00,27,17.10
2009,06,03,00,28,17.10
2009,06,03,00,29,17.10
2009,06,03,00,30,17.10
2009,06,03,00,31,17.10
2009,06,03,00,32,17.00
2009,06,03,00,33,17.00
2009,06,03,00,34,17.00
2009,06,03,00,35,17.00
2009,06,03,00,36,17.00
2009,06,03,00,37,17.00
2009,06,03,00,38,16.90
2009,06,03,00,39,16.90
2009,06,03,00,40,16.90
2009,06,03,00,41,16.90
2009,06,03,00,42,16.90
2009,06,03,00,43,16.90
2009,06,03,00,44,16.90
2009,06,03,00,45,16.90
2009,06,03,00,46,16.80
2009,06,03,00,47,16.80
2009,06,03,00,48,16.80
2009,06,03,00,49,16.80
2009,06,03,00,50,16.80
2009,06,03,00,51,16.80
2009,06,03,00,52,16.70
2009,06,03,00,53,16.70
2009,06,03,00,54,16.70
2009,06,03,00,55,16.70
2009,06,03,00,56,16.70
2009,06,03,00,57,16.70
2009,06,03,00,58,16.70
2009,06,03,00,59,16.70
2009,06,03,01,00,16.70
2009,06,03,01,01,16.70
2009,06,03,01,02,16.70
2009,06,03,01,03,16.70
2009,06,03,01,04,16.70
2009,06,03,01,05,16.70
2009,06,03,01,06,16.60
2009,06,03,01,07,16.60
2009,06,03,01,08,16.60
2009,06,03,01,09,16.60
2009,06,03,01,10,16.60
2009,06,03,01,11,16.60
2009,06,03,01,12,16.50
2009,06,03,01,13,16.40
2009,06,03,01,14,16.40
2009,06,03,01,15,16.40
2009,06,03,01,16,16.40
2009,06,03,01,17,16.40
2009,06,03,01,18,16.40
2009,06,03,01,19,16.40
2009,06,03,01,20,16.40
2009,06,03,01,21,16.40
2009,06,03,01,22,16.40
2009,06,03,01,23,16.40
2009,06,03,01,24,16.40
2009,06,03,01,25,16.40
2009,06,03,01,26,16.40
2009,06,03,01,27,16.40
2009,06,03,01,28,16.40
2009,06,03,01,29,16.40
2009,06,03,01,30,16.40
2009,06,03,01,31,16.40
2009,06,03,01,32,16.40
2009,06,03,01,33,16.40
2009,06,03,01,34,16.30
2009,06,03,01,35,16.30
2009,06,03,01,36,16.30
2009,06,03,01,37,16.30
2009,06,03,01,38,16.30
2009,06,03,01,39,16.30
2009,06,03,01,40,16.30
2009,06,03,01,41,16.30
2009,06,03,01,42,16.30
2009,06,03,01,43,16.30
2009,06,03,01,44,16.30
2009,06,03,01,45,16.30
2009,06,03,01,46,16.30
2009,06,03,01,47,16.30
2009,06,03,01,48,16.30
2009,06,03,01,49,16.30
2009,06,03,01,50,16.30
2009,06,03,01,51,16.30
2009,06,03,01,52,16.30
2009,06,03,01,53,16.20
2009,06,03,01,54,16.20
2009,06,03,01,55,16.20
2009,06,03,01,56,16.20
2009,06,03,01,57,16.10
2009,06,03,01,58,16.10
2009,06,03,01,59,16.10
2009,06,03,02,00,16.10
2009,06,03,02,01,16.10
2009,06,03,02,02,16.10
2009,06,03,02,03,16.10
2009,06,03,02,04,16.10
2009,06,03,02,05,16.10
2009,06,03,02,06,16.10
2009,06,03,02,07,16.10
2009,06,03,02,08,16.10
2009,06,03,02,09,16.00
2009,06,03,02,10,15.90
2009,06,03,02,11,15.90
2009,06,03,02,12,15.90
2009,06,03,02,13,15.90
2009,06,03,02,14,15.90
2009,06,03,02,15,15.90
2009,06,03,02,16,15.90
2009,06,03,02,17,15.90
2009,06,03,02,18,15.90
2009,06,03,02,19,15.90
2009,06,03,02,20,15.80
2009,06,03,02,21,15.80
2009,06,03,02,22,15.80
2009,06,03,02,23,15.80
2009,06,03,02,24,15.80
2009,06,03,02,25,15.80
2009,06,03,02,26,15.80
2009,06,03,02,27,15.80
2009,06,03,02,28,15.80
2009,06,03,02,29,15.80
2009,06,03,02,30,15.80
2009,06,03,02,31,15.80
2009,06,03,02,32,15.80
2009,06,03,02,33,15.80
2009,06,03,02,34,15.80
2009,06,03,02,35,15.80
2009,06,03,02,36,15.80
2009,06,03,02,37,15.80
2009,06,03,02,38,15.80
2009,06,03,02,39,15.80
2009,06,03,02,40,15.80
2009,06,03,02,41,15.80
2009,06,03,02,42,15.80
2009,06,03,02,43,15.80
2009,06,03,02,44,15.80
2009,06,03,02,45,15.80
2009,06,03,02,46,15.80
2009,06,03,02,47,15.80
2009,06,03,02,48,15.90
2009,06,03,02,49,15.90
2009,06,03,02,50,15.90
2009,06,03,02,51,15.90
2009,06,03,02,52,15.90
2009,06,03,02,53,15.90
2009,06,03,02,54,15.90
2009,06,03,02,55,15.90
2009,06,03,02,56,15.90
2009,06,03,02,57,15.90
2009,06,03,02,58,15.90
2009,06,03,02,59,15.90
2009,06,03,03,00,15.90
2009,06,03,03,04,15.90
2009,06,03,03,05,15.90
2009,06,03,03,06,15.90
2009,06,03,03,07,15.90
2009,06,03,03,08,15.90
2009,06,03,03,09,15.90
2009,06,03,03,10,15.90
2009,06,03,03,11,15.90
2009,06,03,03,12,15.90
2009,06,03,03,13,15.90
2009,06,03,03,14,15.90
2009,06,03,03,15,15.90
2009,06,03,03,16,15.90
2009,06,03,03,17,15.90
2009,06,03,03,18,15.90
2009,06,03,03,19,15.90
2009,06,03,03,20,15.90
2009,06,03,03,21,15.90
2009,06,03,03,22,15.80
2009,06,03,03,23,15.80
2009,06,03,03,24,15.80
2009,06,03,03,25,15.80
2009,06,03,03,26,15.80
2009,06,03,03,27,15.80
2009,06,03,03,28,15.80
2009,06,03,03,29,15.80
2009,06,03,03,30,15.80
2009,06,03,03,31,15.80
2009,06,03,03,32,15.80
2009,06,03,03,33,15.80
2009,06,03,03,34,15.80
2009,06,03,03,35,15.70
2009,06,03,03,36,15.70
2009,06,03,03,37,15.70
2009,06,03,03,38,15.70
2009,06,03,03,39,15.70
2009,06,03,03,40,15.60
2009,06,03,03,41,15.60
2009,06,03,03,42,15.60
2009,06,03,03,43,15.60
2009,06,03,03,44,15.60
2009,06,03,03,45,15.50
2009,06,03,03,46,15.50
2009,06,03,03,47,15.50
2009,06,03,03,48,15.50
2009,06,03,03,49,15.50
2009,06,03,03,50,15.40
2009,06,03,03,51,15.40
2009,06,03,03,52,15.40
2009,06,03,03,53,15.40
2009,06,03,03,54,15.30
2009,06,03,03,55,15.30
2009,06,03,03,56,15.30
2009,06,03,03,57,15.30
2009,06,03,03,58,15.30
2009,06,03,03,59,15.30
2009,06,03,04,00,15.30
2009,06,03,04,01,15.30
2009,06,03,04,02,15.30
2009,06,03,04,03,15.30
2009,06,03,04,04,15.30
2009,06,03,04,05,15.30
2009,06,03,04,06,15.20
2009,06,03,04,07,15.20
2009,06,03,04,08,15.20
2009,06,03,04,09,15.20
2009,06,03,04,10,15.20
2009,06,03,04,11,15.20
2009,06,03,04,12,15.10
2009,06,03,04,13,15.10
2009,06,03,04,14,15.10
2009,06,03,04,15,15.10
2009,06,03,04,16,15.10
2009,06,03,04,17,15.10
2009,06,03,04,18,15.10
2009,06,03,04,19,15.00
2009,06,03,04,20,15.00
2009,06,03,04,21,15.00
2009,06,03,04,22,15.00
2009,06,03,04,23,15.00
2009,06,03,04,24,15.00
2009,06,03,04,25,15.00
2009,06,03,04,26,14.90
2009,06,03,04,27,14.90
2009,06,03,04,28,14.90
2009,06,03,04,29,14.90
2009,06,03,04,30,14.90
2009,06,03,04,31,14.90
2009,06,03,04,32,14.80
2009,06,03,04,33,14.80
2009,06,03,04,34,14.80
2009,06,03,04,35,14.80
2009,06,03,04,36,14.80
2009,06,03,04,37,14.80
2009,06,03,04,38,14.80
2009,06,03,04,39,14.80
2009,06,03,04,40,14.80
2009,06,03,04,41,14.70
2009,06,03,04,42,14.70
2009,06,03,04,43,14.70
2009,06,03,04,44,14.70
2009,06,03,04,45,14.70
2009,06,03,04,46,14.60
2009,06,03,04,47,14.60
2009,06,03,04,48,14.60
2009,06,03,04,49,14.60
2009,06,03,04,50,14.60
2009,06,03,04,51,14.50
2009,06,03,04,52,14.50
2009,06,03,04,53,14.50
2009,06,03,04,54,14.50
2009,06,03,04,55,14.50
2009,06,03,04,56,14.50
2009,06,03,04,57,14.40
2009,06,03,04,58,14.40
2009,06,03,04,59,14.40
2009,06,03,05,00,14.40
2009,06,03,05,01,14.40
2009,06,03,05,02,14.40
2009,06,03,05,03,14.30
2009,06,03,05,04,14.30
2009,06,03,05,05,14.30
2009,06,03,05,06,14.30
2009,06,03,05,07,14.20
2009,06,03,05,08,14.20
2009,06,03,05,09,14.20
2009,06,03,05,10,14.20
2009,06,03,05,11,14.20
2009,06,03,05,12,14.20
2009,06,03,05,13,14.20
2009,06,03,05,14,14.20
2009,06,03,05,15,14.20
2009,06,03,05,16,14.20
2009,06,03,05,17,14.20
2009,06,03,05,18,14.20
2009,06,03,05,19,14.20
2009,06,03,05,20,14.10
2009,06,03,05,21,14.10
2009,06,03,05,22,14.10
2009,06,03,05,23,14.10
2009,06,03,05,24,14.10
2009,06,03,05,25,14.00
2009,06,03,05,26,14.00
2009,06,03,05,27,14.00
2009,06,03,05,28,14.00
2009,06,03,05,29,14.00
2009,06,03,05,30,13.90
2009,06,03,05,31,13.90
2009,06,03,05,32,13.90
2009,06,03,05,33,13.90
2009,06,03,05,34,13.90
2009,06,03,05,35,13.90
2009,06,03,05,36,13.80
2009,06,03,05,37,13.80
2009,06,03,05,38,13.80
2009,06,03,05,39,13.80
2009,06,03,05,40,13.80
2009,06,03,05,41,13.80
2009,06,03,05,42,13.70
2009,06,03,05,43,13.70
2009,06,03,05,44,13.70
2009,06,03,05,45,13.70
2009,06,03,05,46,13.70
2009,06,03,05,47,13.70
2009,06,03,05,48,13.70
2009,06,03,05,49,13.70
2009,06,03,05,50,13.70
2009,06,03,05,51,13.70
2009,06,03,05,52,13.70
2009,06,03,05,53,13.70
2009,06,03,05,54,13.70
2009,06,03,05,55,13.70
2009,06,03,05,56,13.70
2009,06,03,05,57,13.60
2009,06,03,05,58,13.60
2009,06,03,05,59,13.60
2009,06,03,06,00,13.60
2009,06,03,06,01,13.60
2009,06,03,06,02,13.60
2009,06,03,06,03,13.60
2009,06,03,06,04,13.60
2009,06,03,06,05,13.60
2009,06,03,06,06,13.60
2009,06,03,06,07,13.50
2009,06,03,06,08,13.50
2009,06,03,06,09,13.50
2009,06,03,06,10,13.50
2009,06,03,06,11,13.50
2009,06,03,06,12,13.50
2009,06,03,06,13,13.50
2009,06,03,06,14,13.50
2009,06,03,06,15,13.50
2009,06,03,06,16,13.50
2009,06,03,06,17,13.50
2009,06,03,06,18,13.50
2009,06,03,06,19,13.50
2009,06,03,06,20,13.50
2009,06,03,06,21,13.40
2009,06,03,06,22,13.40
2009,06,03,06,23,13.40
2009,06,03,06,24,13.40
2009,06,03,06,25,13.40
2009,06,03,06,26,13.40
2009,06,03,06,27,13.40
2009,06,03,06,28,13.50
2009,06,03,06,29,13.50
2009,06,03,06,30,13.50
2009,06,03,06,31,13.50
2009,06,03,06,32,13.50
2009,06,03,06,33,13.50
2009,06,03,06,34,13.50
2009,06,03,06,35,13.50
2009,06,03,06,36,13.50
2009,06,03,06,37,13.50
2009,06,03,06,38,13.60
2009,06,03,06,39,13.60
2009,06,03,06,40,13.60
2009,06,03,06,41,13.60
2009,06,03,06,42,13.70
2009,06,03,06,43,13.70
2009,06,03,06,44,13.70
2009,06,03,06,45,13.70
2009,06,03,06,46,13.70
2009,06,03,06,47,13.70
2009,06,03,06,48,13.80
2009,06,03,06,49,13.80
2009,06,03,06,50,13.90
2009,06,03,06,51,13.90
2009,06,03,06,52,13.90
2009,06,03,06,53,14.00
2009,06,03,06,54,14.00
2009,06,03,06,55,14.10
2009,06,03,06,56,14.10
2009,06,03,06,57,14.20
2009,06,03,06,58,14.20
2009,06,03,06,59,14.20
2009,06,03,07,00,14.20
2009,06,03,07,01,14.30
2009,06,03,07,02,14.40
2009,06,03,07,03,14.50
2009,06,03,07,04,14.50
2009,06,03,07,05,14.60
2009,06,03,07,06,14.60
2009,06,03,07,07,14.70
2009,06,03,07,08,14.80
2009,06,03,07,09,14.80
2009,06,03,07,10,14.80
2009,06,03,07,11,14.90
2009,06,03,07,12,15.00
2009,06,03,07,13,15.00
2009,06,03,07,14,15.10
2009,06,03,07,15,15.10
2009,06,03,07,16,15.20
2009,06,03,07,17,15.20
2009,06,03,07,18,15.30
2009,06,03,07,19,15.30
2009,06,03,07,20,15.40
2009,06,03,07,21,15.50
2009,06,03,07,22,15.50
2009,06,03,07,23,15.60
2009,06,03,07,24,15.60
2009,06,03,07,25,15.70
2009,06,03,07,26,15.80
2009,06,03,07,27,15.80
2009,06,03,07,28,15.80
2009,06,03,07,29,15.90
2009,06,03,07,30,16.00
2009,06,03,07,31,16.10
2009,06,03,07,32,16.10
2009,06,03,07,33,16.10
2009,06,03,07,34,16.20
2009,06,03,07,35,16.30
2009,06,03,07,36,16.30
2009,06,03,07,37,16.40
2009,06,03,07,38,16.40
2009,06,03,07,39,16.40
2009,06,03,07,40,16.50
2009,06,03,07,41,16.60
2009,06,03,07,42,16.70
2009,06,03,07,43,16.70
2009,06,03,07,44,16.80
2009,06,03,07,45,16.90
2009,06,03,07,46,17.00
2009,06,03,07,47,17.10
2009,06,03,07,48,17.20
2009,06,03,07,49,17.30
2009,06,03,07,50,17.40
2009,06,03,07,51,17.50
2009,06,03,07,52,17.70
2009,06,03,07,53,17.80
2009,06,03,07,54,17.90
2009,06,03,07,55,17.90
2009,06,03,07,56,18.00
2009,06,03,07,57,18.10
2009,06,03,07,58,18.20
2009,06,03,07,59,18.20
2009,06,03,08,00,18.30
2009,06,03,08,01,18.40
2009,06,03,08,02,18.40
2009,06,03,08,03,18.50
2009,06,03,08,04,18.50
2009,06,03,08,05,18.50
2009,06,03,08,06,18.60
2009,06,03,08,07,18.70
2009,06,03,08,08,18.70
2009,06,03,08,09,18.80
2009,06,03,08,10,18.80
2009,06,03,08,11,18.90
2009,06,03,08,12,18.90
2009,06,03,08,13,18.90
2009,06,03,08,14,19.00
2009,06,03,08,15,19.10
2009,06,03,08,16,19.10
2009,06,03,08,17,19.20
2009,06,03,08,18,19.30
2009,06,03,08,19,19.40
2009,06,03,08,20,19.50
2009,06,03,08,21,19.60
2009,06,03,08,22,19.70
2009,06,03,08,23,19.80
2009,06,03,08,24,19.90
2009,06,03,08,25,19.90
2009,06,03,08,26,20.10
2009,06,03,08,27,20.10
2009,06,03,08,28,20.20
2009,06,03,08,29,20.30
2009,06,03,08,30,20.40
2009,06,03,08,31,20.50
2009,06,03,08,32,20.60
2009,06,03,08,33,20.70
2009,06,03,08,34,20.80
2009,06,03,08,35,20.80
2009,06,03,08,36,21.00
2009,06,03,08,37,21.00
2009,06,03,08,38,21.10
2009,06,03,08,39,21.20
2009,06,03,08,40,21.30
2009,06,03,08,41,21.30
2009,06,03,08,42,21.40
2009,06,03,08,43,21.40
2009,06,03,08,44,21.40
2009,06,03,08,45,21.60
2009,06,03,08,46,21.60
2009,06,03,08,47,21.60
2009,06,03,08,48,21.60
2009,06,03,08,49,21.60
2009,06,03,08,50,21.60
2009,06,03,08,51,21.70
2009,06,03,08,52,21.80
2009,06,03,08,53,21.90
2009,06,03,08,54,22.00
2009,06,03,08,55,22.10
2009,06,03,08,56,22.30
2009,06,03,08,57,22.40
2009,06,03,08,58,22.50
2009,06,03,08,59,22.60
2009,06,03,09,00,22.70
2009,06,03,09,01,22.70
2009,06,03,09,02,22.80
2009,06,03,09,03,22.90
2009,06,03,09,04,22.90
2009,06,03,09,05,22.90
2009,06,03,09,06,23.00
2009,06,03,09,07,23.10
2009,06,03,09,08,23.20
2009,06,03,09,09,23.20
2009,06,03,09,10,23.30
2009,06,03,09,11,23.40
2009,06,03,09,12,23.40
2009,06,03,09,13,23.50
2009,06,03,09,14,23.50
2009,06,03,09,15,23.40
2009,06,03,09,16,23.40
2009,06,03,09,17,23.40
2009,06,03,09,18,23.40
2009,06,03,09,19,23.50
2009,06,03,09,20,23.60
2009,06,03,09,21,23.70
2009,06,03,09,22,23.70
2009,06,03,09,23,23.70
2009,06,03,09,24,23.70
2009,06,03,09,25,23.70
2009,06,03,09,26,23.70
2009,06,03,09,27,23.70
2009,06,03,09,28,23.60
2009,06,03,09,29,23.60
2009,06,03,09,30,23.70
2009,06,03,09,31,23.70
2009,06,03,09,32,23.70
2009,06,03,09,33,23.70
2009,06,03,09,34,23.70
2009,06,03,09,35,23.70
2009,06,03,09,36,23.60
2009,06,03,09,37,23.50
2009,06,03,09,38,23.50
2009,06,03,09,39,23.60
2009,06,03,09,40,23.60
2009,06,03,09,41,23.50
2009,06,03,09,42,23.40
2009,06,03,09,43,23.40
2009,06,03,09,44,23.40
2009,06,03,09,45,23.40
2009,06,03,09,46,23.40
2009,06,03,09,47,23.30
2009,06,03,09,48,23.30
2009,06,03,09,49,23.30
2009,06,03,09,50,23.30
2009,06,03,09,51,23.30
2009,06,03,09,52,23.40
2009,06,03,09,53,23.40
2009,06,03,09,54,23.60
2009,06,03,09,55,23.60
2009,06,03,09,56,23.70
2009,06,03,09,57,23.70
2009,06,03,09,58,23.70
2009,06,03,09,59,23.70
2009,06,03,10,00,23.70
2009,06,03,10,01,23.60
2009,06,03,10,02,23.50
2009,06,03,10,03,23.40
2009,06,03,10,04,23.30
2009,06,03,10,05,23.30
2009,06,03,10,06,23.30
2009,06,03,10,07,23.30
2009,06,03,10,08,23.30
2009,06,03,10,09,23.30
2009,06,03,10,10,23.30
2009,06,03,10,11,23.40
2009,06,03,10,12,23.50
2009,06,03,10,13,23.60
2009,06,03,10,14,23.70
2009,06,03,10,15,23.70
2009,06,03,10,16,23.90
2009,06,03,10,17,24.00
2009,06,03,10,18,24.10
2009,06,03,10,19,24.30
2009,06,03,10,20,24.50
2009,06,03,10,21,24.60
2009,06,03,10,22,24.80
2009,06,03,10,23,24.80
2009,06,03,10,24,24.90
2009,06,03,10,25,24.90
2009,06,03,10,26,24.80
2009,06,03,10,27,24.70
2009,06,03,10,28,24.60
2009,06,03,10,29,24.70
2009,06,03,10,30,24.80
2009,06,03,10,31,24.90
2009,06,03,10,32,25.00
2009,06,03,10,33,25.20
2009,06,03,10,34,25.20
2009,06,03,10,35,25.20
2009,06,03,10,36,25.20
2009,06,03,10,37,25.30
2009,06,03,10,38,25.30
2009,06,03,10,39,25.20
2009,06,03,10,40,25.20
2009,06,03,10,41,25.20
2009,06,03,10,42,25.30
2009,06,03,10,43,25.40
2009,06,03,10,44,25.50
2009,06,03,10,45,25.60
2009,06,03,10,46,25.70
2009,06,03,10,47,25.80
2009,06,03,10,48,25.90
2009,06,03,10,49,25.90
2009,06,03,10,50,25.80
2009,06,03,10,51,25.70
2009,06,03,10,52,25.60
2009,06,03,10,53,25.60
2009,06,03,10,54,25.60
2009,06,03,10,55,25.60
2009,06,03,10,56,25.60
2009,06,03,10,57,25.80
2009,06,03,10,58,25.90
2009,06,03,10,59,25.90
2009,06,03,11,00,25.80
2009,06,03,11,01,25.70
2009,06,03,11,02,25.60
2009,06,03,11,03,25.60
2009,06,03,11,04,25.50
2009,06,03,11,05,25.60
2009,06,03,11,06,25.70
2009,06,03,11,07,25.90
2009,06,03,11,08,26.00
2009,06,03,11,09,26.10
2009,06,03,11,10,26.40
2009,06,03,11,11,26.50
2009,06,03,11,12,26.60
2009,06,03,11,13,26.50
2009,06,03,11,14,26.40
2009,06,03,11,15,26.40
2009,06,03,11,16,26.40
2009,06,03,11,17,26.40
2009,06,03,11,18,26.40
2009,06,03,11,19,26.50
2009,06,03,11,20,26.60
2009,06,03,11,21,26.70
2009,06,03,11,22,26.70
2009,06,03,11,23,26.80
2009,06,03,11,24,26.90
2009,06,03,11,25,27.00
2009,06,03,11,26,27.10
2009,06,03,11,27,27.20
2009,06,03,11,28,27.20
2009,06,03,11,29,27.20
2009,06,03,11,30,27.10
2009,06,03,11,31,27.10
2009,06,03,11,32,27.00
2009,06,03,11,33,27.10
2009,06,03,11,34,27.10
2009,06,03,11,35,27.10
2009,06,03,11,36,26.90
2009,06,03,11,37,26.90
2009,06,03,11,38,26.80
2009,06,03,11,39,26.80
2009,06,03,11,40,26.70
2009,06,03,11,41,26.70
2009,06,03,11,42,26.80
2009,06,03,11,43,26.80
2009,06,03,11,44,26.70
2009,06,03,11,45,26.70
2009,06,03,11,46,26.60
2009,06,03,11,47,26.70
2009,06,03,11,48,26.80
2009,06,03,11,49,26.90
2009,06,03,11,50,26.90
2009,06,03,11,51,26.90
2009,06,03,11,52,26.80
2009,06,03,11,53,26.80
2009,06,03,11,54,26.80
2009,06,03,11,55,26.70
2009,06,03,11,56,26.70
2009,06,03,11,57,26.60
2009,06,03,11,58,26.50
2009,06,03,11,59,26.30
2009,06,03,12,00,26.20
2009,06,03,12,01,26.10
2009,06,03,12,02,26.00
2009,06,03,12,03,25.90
2009,06,03,12,04,25.90
2009,06,03,12,05,25.90
2009,06,03,12,06,25.90
2009,06,03,12,07,25.90
2009,06,03,12,08,25.90
2009,06,03,12,09,25.90
2009,06,03,12,10,25.90
2009,06,03,12,11,26.00
2009,06,03,12,12,26.00
2009,06,03,12,13,26.00
2009,06,03,12,14,26.00
2009,06,03,12,15,26.00
2009,06,03,12,16,25.90
2009,06,03,12,17,25.90
2009,06,03,12,18,25.80
2009,06,03,12,19,25.70
2009,06,03,12,20,25.70
2009,06,03,12,21,25.60
2009,06,03,12,22,25.60
2009,06,03,12,23,25.60
2009,06,03,12,24,25.70
2009,06,03,12,25,25.80
2009,06,03,12,26,25.90
2009,06,03,12,27,25.90
2009,06,03,12,28,25.90
2009,06,03,12,29,25.90
2009,06,03,12,30,26.00
2009,06,03,12,31,26.20
2009,06,03,12,32,26.40
2009,06,03,12,33,26.60
2009,06,03,12,34,26.70
2009,06,03,12,35,26.90
2009,06,03,12,36,27.20
2009,06,03,12,37,27.30
2009,06,03,12,38,27.50
2009,06,03,12,39,27.70
2009,06,03,12,40,27.90
2009,06,03,12,41,28.00
2009,06,03,12,42,28.10
2009,06,03,12,43,28.20
2009,06,03,12,44,28.20
2009,06,03,12,45,28.20
2009,06,03,12,46,28.20
2009,06,03,12,47,28.10
2009,06,03,12,48,28.10
2009,06,03,12,49,28.00
2009,06,03,12,50,27.90
2009,06,03,12,51,27.70
2009,06,03,12,52,27.60
2009,06,03,12,53,27.30
2009,06,03,12,54,27.20
2009,06,03,12,55,27.00
2009,06,03,12,56,26.90
2009,06,03,12,57,26.80
2009,06,03,12,58,26.80
2009,06,03,12,59,26.80
2009,06,03,13,00,26.80
2009,06,03,13,01,26.90
2009,06,03,13,02,26.90
2009,06,03,13,03,27.00
2009,06,03,13,04,27.10
2009,06,03,13,05,27.10
2009,06,03,13,06,27.20
2009,06,03,13,07,27.30
2009,06,03,13,08,27.40
2009,06,03,13,09,27.40
2009,06,03,13,10,27.40
2009,06,03,13,11,27.30
2009,06,03,13,12,27.30
2009,06,03,13,13,27.30
2009,06,03,13,14,27.30
2009,06,03,13,15,27.30
2009,06,03,13,16,27.30
2009,06,03,13,17,27.30
2009,06,03,13,18,27.30
2009,06,03,13,19,27.30
2009,06,03,13,20,27.30
2009,06,03,13,21,27.30
2009,06,03,13,22,27.30
2009,06,03,13,23,27.40
2009,06,03,13,24,27.40
2009,06,03,13,25,27.40
2009,06,03,13,26,27.40
2009,06,03,13,27,27.30
2009,06,03,13,28,27.30
2009,06,03,13,29,27.30
2009,06,03,13,30,27.30
2009,06,03,13,31,27.30
2009,06,03,13,32,27.30
2009,06,03,13,33,27.30
2009,06,03,13,34,27.20
2009,06,03,13,35,27.10
2009,06,03,13,36,27.10
2009,06,03,13,37,27.10
2009,06,03,13,38,27.10
2009,06,03,13,39,27.20
2009,06,03,13,40,27.20
2009,06,03,13,41,27.20
2009,06,03,13,42,27.20
2009,06,03,13,43,27.20
2009,06,03,13,44,27.20
2009,06,03,13,45,27.30
2009,06,03,13,46,27.50
2009,06,03,13,47,27.70
2009,06,03,13,48,27.80
2009,06,03,13,49,27.90
2009,06,03,13,50,28.00
2009,06,03,13,51,28.10
2009,06,03,13,52,28.20
2009,06,03,13,53,28.20
2009,06,03,13,54,28.30
2009,06,03,13,55,28.30
2009,06,03,13,56,28.30
2009,06,03,13,57,28.40
2009,06,03,13,58,28.40
2009,06,03,13,59,28.30
2009,06,03,14,00,28.20
2009,06,03,14,01,28.20
2009,06,03,14,02,28.10
2009,06,03,14,03,28.10
2009,06,03,14,04,28.10
2009,06,03,14,05,28.20
2009,06,03,14,06,28.30
2009,06,03,14,07,28.40
2009,06,03,14,08,28.60
2009,06,03,14,09,28.60
2009,06,03,14,10,28.70
2009,06,03,14,11,28.80
2009,06,03,14,12,28.80
2009,06,03,14,13,28.90
2009,06,03,14,14,28.90
2009,06,03,14,15,28.90
2009,06,03,14,16,28.90
2009,06,03,14,17,28.80
2009,06,03,14,18,28.70
2009,06,03,14,19,28.70
2009,06,03,14,20,28.60
2009,06,03,14,21,28.60
2009,06,03,14,22,28.70
2009,06,03,14,23,28.80
2009,06,03,14,24,28.80
2009,06,03,14,25,28.80
2009,06,03,14,26,28.80
2009,06,03,14,27,28.80
2009,06,03,14,28,28.80
2009,06,03,14,29,28.90
2009,06,03,14,30,28.90
2009,06,03,14,31,28.90
2009,06,03,14,32,29.00
2009,06,03,14,33,29.10
2009,06,03,14,34,29.20
2009,06,03,14,35,29.20
2009,06,03,14,36,29.20
2009,06,03,14,37,29.20
2009,06,03,14,38,29.10
2009,06,03,14,39,29.00
2009,06,03,14,40,28.90
2009,06,03,14,41,28.90
2009,06,03,14,42,29.00
2009,06,03,14,43,29.10
2009,06,03,14,44,29.20
2009,06,03,14,45,29.20
2009,06,03,14,46,29.10
2009,06,03,14,47,28.90
2009,06,03,14,48,28.80
2009,06,03,14,49,28.80
2009,06,03,14,50,28.70
2009,06,03,14,51,28.70
2009,06,03,14,52,28.60
2009,06,03,14,53,28.60
2009,06,03,14,54,28.60
2009,06,03,14,55,28.40
2009,06,03,14,56,28.30
2009,06,03,14,57,28.10
2009,06,03,14,58,28.00
2009,06,03,14,59,27.90
2009,06,03,15,00,27.80
2009,06,03,15,01,27.80
2009,06,03,15,02,27.80
2009,06,03,15,03,27.90
2009,06,03,15,04,28.10
2009,06,03,15,05,28.30
2009,06,03,15,06,28.60
2009,06,03,15,07,28.70
2009,06,03,15,08,28.80
2009,06,03,15,09,28.90
2009,06,03,15,10,28.90
2009,06,03,15,11,29.00
2009,06,03,15,12,29.20
2009,06,03,15,13,29.40
2009,06,03,15,14,29.60
2009,06,03,15,15,29.60
2009,06,03,15,16,29.60
2009,06,03,15,17,29.60
2009,06,03,15,18,29.50
2009,06,03,15,19,29.60
2009,06,03,15,20,29.70
2009,06,03,15,21,29.80
2009,06,03,15,22,29.80
2009,06,03,15,23,29.90
2009,06,03,15,24,30.10
2009,06,03,15,25,30.10
2009,06,03,15,26,29.90
2009,06,03,15,27,29.80
2009,06,03,15,28,29.60
2009,06,03,15,29,29.60
2009,06,03,15,30,29.50
2009,06,03,15,31,29.50
2009,06,03,15,32,29.60
2009,06,03,15,33,29.60
2009,06,03,15,34,29.60
2009,06,03,15,35,29.70
2009,06,03,15,36,29.70
2009,06,03,15,37,29.70
2009,06,03,15,38,29.70
2009,06,03,15,39,29.70
2009,06,03,15,40,29.60
2009,06,03,15,41,29.50
2009,06,03,15,42,29.40
2009,06,03,15,43,29.30
2009,06,03,15,44,29.30
2009,06,03,15,45,29.30
2009,06,03,15,46,29.30
2009,06,03,15,47,29.30
2009,06,03,15,48,29.30
2009,06,03,15,49,29.30
2009,06,03,15,50,29.30
2009,06,03,15,51,29.30
2009,06,03,15,52,29.30
2009,06,03,15,53,29.30
2009,06,03,15,54,29.20
2009,06,03,15,55,29.20
2009,06,03,15,56,29.20
2009,06,03,15,57,29.10
2009,06,03,15,58,29.20
2009,06,03,15,59,29.20
2009,06,03,16,00,29.20
2009,06,03,16,01,29.20
2009,06,03,16,02,29.20
2009,06,03,16,03,29.30
2009,06,03,16,04,29.30
2009,06,03,16,05,29.20
2009,06,03,16,06,29.20
2009,06,03,16,07,29.10
2009,06,03,16,08,29.00
2009,06,03,16,09,28.90
2009,06,03,16,10,28.90
2009,06,03,16,11,29.00
2009,06,03,16,12,29.10
2009,06,03,16,13,29.20
2009,06,03,16,14,29.40
2009,06,03,16,15,29.50
2009,06,03,16,16,29.60
2009,06,03,16,17,29.60
2009,06,03,16,18,29.50
2009,06,03,16,19,29.50
2009,06,03,16,20,29.50
2009,06,03,16,21,29.50
2009,06,03,16,22,29.60
2009,06,03,16,23,29.70
2009,06,03,16,24,29.80
2009,06,03,16,25,29.90
2009,06,03,16,26,30.10
2009,06,03,16,27,30.20
2009,06,03,16,28,30.50
2009,06,03,16,29,30.70
2009,06,03,16,30,30.80
2009,06,03,16,31,30.90
2009,06,03,16,32,31.00
2009,06,03,16,33,31.10
2009,06,03,16,34,31.20
2009,06,03,16,35,31.30
2009,06,03,16,36,31.30
2009,06,03,16,37,31.40
2009,06,03,16,38,31.50
2009,06,03,16,39,31.60
2009,06,03,16,40,31.60
2009,06,03,16,41,31.60
2009,06,03,16,42,31.70
2009,06,03,16,43,31.70
2009,06,03,16,44,31.70
2009,06,03,16,45,31.70
2009,06,03,16,46,31.70
2009,06,03,16,47,31.70
2009,06,03,16,48,31.70
2009,06,03,16,49,31.70
2009,06,03,16,50,31.70
2009,06,03,16,51,31.80
2009,06,03,16,52,31.80
2009,06,03,16,53,31.80
2009,06,03,16,54,31.80
2009,06,03,16,55,31.80
2009,06,03,16,56,31.80
2009,06,03,16,57,31.80
2009,06,03,16,58,31.80
2009,06,03,16,59,31.90
2009,06,03,17,00,31.90
2009,06,03,17,01,32.00
2009,06,03,17,02,32.10
2009,06,03,17,03,32.20
2009,06,03,17,04,32.20
2009,06,03,17,05,32.30
2009,06,03,17,06,32.40
2009,06,03,17,07,32.50
2009,06,03,17,08,32.60
2009,06,03,17,09,32.60
2009,06,03,17,10,32.60
2009,06,03,17,11,32.60
2009,06,03,17,12,32.60
2009,06,03,17,13,32.50
2009,06,03,17,14,32.50
2009,06,03,17,15,32.40
2009,06,03,17,16,32.30
2009,06,03,17,17,32.20
2009,06,03,17,18,32.10
2009,06,03,17,19,32.10
2009,06,03,17,20,32.00
2009,06,03,17,21,31.90
2009,06,03,17,22,31.90